Hourly Data Report for October 04, 2017

All times are specified in Local Standard Time (LST). Add 1 hour to adjust for Daylight Saving Time where and when it is observed.

FORT GOOD HOPE CS
NORTHWEST TERRITORIES

66°14'32.044" N
128°38'39.081" W
81.70 m
2201450
71491
ZGH

Download Data

Hourly Data (October 2017)
Hourly Data Report for October 4, 2017
Temp Definition
°C
Dew Point Temp Definition
°C
Rel Hum Definition
%
Wind Dir Definition
10's deg

Wind Spd Definition
km/h
Visibility Definition
km
Stn Press Definition
kPa
Hmdx Definition


Wind Chill Definition


Weather Definition


TIME
00:00 2.4 1.8 96 8 6   100.69     LegendNANA
01:00 2.0 1.5 96 8 6   100.70     LegendNANA
02:00 1.6 1.2 97 8 9   100.71     LegendNANA
03:00 0.9 0.5 97 7 6   100.68     LegendNANA
04:00 0.8 0.4 97 8 7   100.66     LegendNANA
05:00 0.4 0.1 97 8 7   100.62     LegendNANA
06:00 0.4 0.1 98 4 1   100.67     LegendNANA
07:00 1.3 1.1 98 7 7   100.66     LegendNANA
08:00 1.6 1.4 98 8 10   100.65     LegendNANA
09:00 1.8 1.5 98 8 10   100.65     LegendNANA
10:00 2.1 1.8 98 8 10   100.63     LegendNANA
11:00 2.6 2.3 98 7 9   100.58     LegendNANA
12:00 3.2 2.3 94 6 9   100.57     LegendNANA
13:00 4.4 2.3 87 7 11   100.53     LegendNANA
14:00 6.3 2.9 79 7 14   100.45     LegendNANA
15:00 7.1 3.1 76 8 16   100.36     LegendNANA
16:00 7.3 3.3 76 9 16   100.27     LegendNANA
17:00 6.4 2.8 78 9 13   100.25     LegendNANA
18:00 5.5 2.5 81 9 17   100.16     LegendNANA
19:00 4.7 2.4 85 9 10   100.11     LegendNANA
20:00 4.8 2.5 85 8 11   100.04     LegendNANA
21:00 5.0 2.8 86 9 17   99.91     LegendNANA
22:00 5.4 2.9 84 9 11   99.81     LegendNANA
23:00 5.6 2.9 82 10 16   99.68     LegendNANA

Notes on Data Quality.

Legend

  • E = Estimated
  • M = Missing
  • NA = Not Available
  • ‡ = Partner data that is not subject to review by the National Climate Archives
Date modified: